�N����,����,�~����,�C��,���x,�C��,����,���ϕ���,�ő�u�ԕ���,�ő厞����,���˗�,�I�_���x,�n�����x,�ő啗���N��,DTYPE
"23/06/22","00:10",0.0,22.0,75.3,1003.4,120.0,1.0,2.1,62.1,0.00,17.5,21.0,"00:07:12",1
"23/06/22","00:20",0.0,22.1,73.6,1003.6,136.1,1.2,3.6,137.9,0.00,17.2,21.0,"00:14:00",1
"23/06/22","00:30",0.0,22.2,71.0,1003.4,139.9,1.6,3.9,148.2,0.00,16.7,20.7,"00:24:40",1
"23/06/22","00:40",0.0,22.3,69.3,1003.6,152.8,1.1,2.7,183.3,0.00,16.4,20.9,"00:36:32",1
"23/06/22","00:50",0.0,22.2,69.1,1003.4,148.7,0.8,2.0,53.8,0.00,16.3,21.1,"00:44:00",1
"23/06/22","01:00",0.0,22.2,67.8,1003.1,115.6,1.2,3.4,80.9,0.00,16.0,21.0,"00:55:36",1
"23/06/22","01:10",0.0,22.2,67.0,1002.9,136.6,1.5,3.6,141.4,0.00,15.8,20.8,"01:08:56",1
"23/06/22","01:20",0.0,22.1,67.3,1002.6,152.1,1.5,2.8,191.1,0.00,15.8,20.9,"01:17:28",1
"23/06/22","01:30",0.0,22.1,67.7,1002.4,153.3,1.1,2.5,97.2,0.00,15.9,20.8,"01:21:44",1
"23/06/22","01:40",0.0,21.9,68.3,1002.9,152.7,0.5,2.1,53.2,0.00,15.8,20.9,"01:30:40",1
"23/06/22","01:50",0.0,21.8,69.1,1002.6,146.6,0.5,1.6,120.2,0.00,15.9,21.0,"01:45:12",1
"23/06/22","02:00",0.2,21.6,71.3,1002.4,160.4,0.5,1.1,209.8,0.00,16.2,20.9,"01:50:56",1
"23/06/22","02:10",0.0,21.1,73.8,1002.4,354.5,0.6,1.2,306.1,0.00,16.3,20.8,"02:08:56",1
"23/06/22","02:20",0.0,20.7,76.2,1002.4,354.5,0.5,1.1,337.1,0.00,16.4,20.9,"02:11:28",1
"23/06/22","02:30",0.0,20.7,78.3,1002.4,349.3,0.6,1.7,354.5,0.00,16.8,20.9,"02:20:32",1
"23/06/22","02:40",0.0,20.6,79.5,1002.2,340.2,0.3,1.2,99.6,0.00,17.0,20.8,"02:34:40",1
"23/06/22","02:50",0.0,20.6,80.3,1002.2,23.8,0.6,1.6,98.5,0.00,17.1,20.7,"02:43:28",1
"23/06/22","03:00",0.0,20.7,80.3,1002.2,342.5,0.6,1.8,357.4,0.00,17.2,20.7,"02:58:40",1
"23/06/22","03:10",0.0,20.8,79.8,1001.9,30.3,0.7,1.8,104.9,0.00,17.2,20.8,"03:09:04",1
"23/06/22","03:20",0.0,20.9,79.1,1002.4,27.7,0.5,1.8,77.8,0.00,17.2,20.9,"03:10:40",1
"23/06/22","03:30",0.0,21.0,78.8,1001.9,38.6,0.6,1.9,38.9,0.00,17.2,20.7,"03:23:28",1
"23/06/22","03:40",0.0,21.0,78.4,1002.2,25.9,0.8,3.3,51.5,0.00,17.1,20.7,"03:36:16",1
"23/06/22","03:50",0.0,21.1,78.2,1002.2,38.2,0.7,1.6,77.1,0.00,17.2,20.7,"03:41:04",1
"23/06/22","04:00",0.0,21.1,78.2,1002.2,25.0,0.7,2.6,11.7,0.00,17.2,20.6,"03:51:36",1
"23/06/22","04:10",0.0,21.1,78.4,1002.4,37.6,0.8,2.4,92.5,0.00,17.2,20.6,"04:02:40",1
"23/06/22","04:20",0.0,21.0,78.9,1001.9,7.6,0.5,1.4,340.6,0.00,17.2,20.6,"04:17:12",1
"23/06/22","04:30",0.0,20.9,79.7,1002.4,24.7,0.3,1.1,25.3,0.00,17.3,20.7,"04:22:00",1
"23/06/22","04:40",0.0,20.7,80.9,1002.2,9.2,0.5,1.1,42.2,0.00,17.3,20.5,"04:32:16",1
"23/06/22","04:50",0.2,20.5,82.5,1002.2,352.9,0.6,1.9,63.5,0.00,17.5,20.6,"04:43:20",1
"23/06/22","05:00",0.2,20.1,83.7,1002.2,350.5,0.8,1.7,351.7,0.00,17.3,20.7,"04:53:28",1
"23/06/22","05:10",0.0,19.9,85.0,1002.4,350.2,0.8,1.9,52.6,0.00,17.3,20.6,"05:03:36",1
"23/06/22","05:20",0.2,19.8,86.0,1002.4,351.0,0.8,2.4,52.0,0.00,17.4,20.6,"05:17:36",1
"23/06/22","05:30",0.8,19.8,86.8,1001.9,9.7,0.5,1.1,6.8,0.00,17.6,20.7,"05:21:20",1
"23/06/22","05:40",1.6,19.8,87.7,1002.4,55.8,0.6,1.8,93.8,0.00,17.7,20.6,"05:34:48",1
"23/06/22","05:50",1.0,19.6,88.5,1001.9,64.0,0.6,2.2,119.4,0.00,17.7,20.6,"05:47:52",1
"23/06/22","06:00",0.2,19.4,89.1,1002.4,12.6,0.3,1.0,77.1,0.00,17.6,20.5,"05:53:28",1
"23/06/22","06:10",0.6,19.4,89.8,1002.4,318.0,0.8,1.4,346.0,0.00,17.7,20.5,"06:09:28",1
"23/06/22","06:20",0.0,19.2,90.3,1002.2,322.9,0.7,1.3,303.9,0.00,17.6,20.5,"06:12:48",1
"23/06/22","06:30",0.4,19.2,90.8,1002.4,312.2,1.1,3.2,299.3,0.00,17.7,20.6,"06:28:24",1
"23/06/22","06:40",0.2,19.2,91.3,1002.9,286.4,0.8,1.4,324.6,0.00,17.8,20.4,"06:31:04",1
"23/06/22","06:50",0.6,19.2,91.7,1002.6,346.1,0.5,1.3,27.4,0.00,17.9,20.6,"06:48:08",1
"23/06/22","07:00",1.0,19.0,91.9,1002.6,53.8,0.7,2.0,91.8,0.00,17.7,20.4,"06:56:16",1
"23/06/22","07:10",1.2,18.4,92.3,1002.9,101.7,1.0,2.5,137.5,0.00,17.2,20.5,"07:04:56",1
"23/06/22","07:20",1.0,18.3,92.6,1003.1,340.3,0.5,1.6,340.5,0.00,17.1,20.4,"07:19:36",1
"23/06/22","07:30",1.0,18.2,92.8,1002.9,317.9,0.6,2.1,14.5,0.00,17.1,20.4,"07:29:44",1
"23/06/22","07:40",1.0,18.2,93.0,1002.6,280.5,0.5,1.1,329.7,0.00,17.1,20.0,"07:31:12",1
"23/06/22","07:50",1.0,18.2,93.2,1002.4,281.4,0.8,1.3,290.3,0.02,17.1,20.3,"07:48:00",1
"23/06/22","08:00",0.4,18.1,93.5,1002.6,303.6,0.8,1.6,324.6,0.03,17.1,20.4,"07:52:32",1
"23/06/22","08:10",0.2,18.3,93.6,1002.6,281.2,0.6,1.2,260.4,0.03,17.3,20.4,"08:03:52",1
"23/06/22","08:20",1.2,18.4,93.6,1002.4,319.5,0.3,1.4,327.5,0.01,17.4,20.3,"08:14:16",1
"23/06/22","08:30",1.6,18.4,93.8,1002.6,359.2,0.6,2.5,93.6,0.00,17.4,20.2,"08:25:04",1
"23/06/22","08:40",1.6,18.4,94.0,1002.4,107.5,0.5,1.3,126.3,0.01,17.5,20.2,"08:39:28",1
"23/06/22","08:50",1.0,18.5,94.1,1002.4,152.9,1.1,3.6,166.3,0.02,17.6,20.0,"08:46:00",1
"23/06/22","09:00",0.4,18.7,94.1,1002.6,140.3,1.1,2.6,144.5,0.05,17.8,20.1,"08:59:12",1
"23/06/22","09:10",0.4,18.7,94.2,1002.9,155.8,1.3,4.8,203.7,0.05,17.8,20.2,"09:02:48",1
"23/06/22","09:20",0.2,18.6,94.2,1002.4,153.7,0.8,2.5,65.7,0.03,17.7,20.2,"09:14:00",1
"23/06/22","09:30",0.6,18.8,94.2,1002.6,265.8,0.3,1.0,113.2,0.02,17.9,19.8,"09:20:02",1
"23/06/22","09:40",0.6,18.6,94.3,1002.2,140.2,0.7,2.9,203.6,0.00,17.7,20.0,"09:34:48",1
"23/06/22","09:50",1.2,18.5,94.4,1002.2,32.7,0.7,3.1,64.2,0.01,17.6,20.1,"09:48:40",1
"23/06/22","10:00",1.4,18.4,94.5,1002.2,109.7,0.6,1.9,80.6,0.03,17.5,20.0,"09:52:00",1
"23/06/22","10:10",0.4,18.6,94.6,1002.2,155.9,0.7,2.0,128.1,0.06,17.8,20.0,"10:04:16",1
"23/06/22","10:20",0.4,18.8,94.6,1002.2,161.1,0.7,2.4,128.7,0.11,18.0,20.0,"10:16:32",1
"23/06/22","10:30",0.4,18.8,94.4,1002.2,187.7,0.7,1.6,167.0,0.07,17.9,20.0,"10:24:32",1
"23/06/22","10:40",0.4,19.0,94.6,1001.9,164.9,0.6,1.7,196.9,0.10,18.2,19.8,"10:39:12",1
"23/06/22","10:50",0.2,19.0,94.3,1001.5,178.2,1.2,2.6,180.4,0.15,18.1,19.8,"10:49:04",1
"23/06/22","11:00",0.0,19.3,94.8,1001.5,164.1,1.1,1.8,146.7,0.17,18.5,20.0,"10:54:16",1
"23/06/22","11:10",0.0,19.5,94.3,1001.7,191.1,1.0,2.8,167.9,0.16,18.6,19.9,"11:05:28",1
"23/06/22","11:20",0.4,19.5,94.3,1001.2,217.2,1.0,1.9,186.8,0.10,18.6,20.0,"11:10:08",1
"23/06/22","11:30",0.4,19.4,94.2,1001.2,207.0,0.6,1.6,213.7,0.09,18.5,20.2,"11:20:48",1
"23/06/22","11:40",0.0,19.5,94.3,1001.2,105.8,0.5,1.7,172.1,0.13,18.6,20.0,"11:36:00",1
"23/06/22","11:50",0.2,19.6,94.2,1001.5,19.5,0.6,1.1,84.3,0.13,18.7,20.0,"11:43:20",1
"23/06/22","12:00",0.4,19.5,94.1,1001.0,216.1,0.6,1.7,120.8,0.12,18.6,20.1,"11:59:44",1
"23/06/22","12:10",0.4,19.3,94.1,1001.2,251.0,0.6,1.6,318.1,0.06,18.4,20.0,"12:04:24",1
"23/06/22","12:20",0.0,19.3,94.0,1001.2,223.5,0.3,1.7,199.1,0.05,18.4,20.1,"12:19:20",1
"23/06/22","12:30",0.0,19.4,94.2,1000.8,108.4,0.2,0.8,164.1,0.05,18.5,20.2,"12:21:52",1
"23/06/22","12:40",0.0,19.4,94.2,1000.8,147.0,0.3,1.2,133.7,0.05,18.5,20.2,"12:33:20",1
"23/06/22","12:50",0.4,19.4,94.2,1000.8,161.7,0.6,1.3,220.1,0.07,18.5,20.1,"12:42:48",1
"23/06/22","13:00",0.0,19.8,94.2,1000.5,165.4,0.6,1.4,144.1,0.11,18.9,20.2,"12:54:48",1
"23/06/22","13:10",0.0,19.7,93.9,1000.0,133.4,0.7,2.0,134.7,0.08,18.7,20.3,"13:09:36",1
"23/06/22","13:20",0.0,19.6,94.0,1000.3,153.0,1.1,2.5,133.5,0.08,18.6,20.2,"13:14:40",1
"23/06/22","13:30",0.0,19.8,94.1,1000.0,19.3,0.7,1.8,72.1,0.06,18.9,20.2,"13:24:40",1
"23/06/22","13:40",0.0,20.0,93.6,999.8,121.7,0.7,1.9,128.3,0.09,19.0,20.3,"13:35:52",1
"23/06/22","13:50",0.0,20.1,93.6,999.6,166.3,0.8,2.0,166.5,0.08,19.1,20.2,"13:41:44",1
"23/06/22","14:00",0.0,20.2,93.5,999.8,131.5,0.8,2.0,166.1,0.08,19.2,20.2,"13:52:16",1
"23/06/22","14:10",0.0,19.9,92.8,999.8,154.9,1.3,2.9,91.3,0.07,18.7,20.3,"14:06:00",1
"23/06/22","14:20",0.0,20.0,92.5,999.8,83.9,1.0,3.1,187.5,0.09,18.8,20.4,"14:14:24",1
"23/06/22","14:30",0.0,20.1,91.8,999.6,122.7,1.1,2.9,67.6,0.09,18.8,20.2,"14:29:12",1
"23/06/22","14:40",0.0,20.5,91.3,999.6,140.6,0.7,1.9,132.7,0.09,19.1,20.2,"14:37:04",1
"23/06/22","14:50",0.0,20.7,90.6,999.6,160.7,0.8,2.0,117.7,0.12,19.1,20.3,"14:41:28",1
"23/06/22","15:00",0.0,21.2,89.7,999.3,126.2,0.8,2.0,145.9,0.15,19.5,20.3,"14:50:32",1
"23/06/22","15:10",0.0,21.3,88.7,999.6,170.8,1.1,2.5,174.9,0.15,19.4,20.3,"15:06:08",1
"23/06/22","15:20",0.0,21.5,87.3,999.6,148.4,1.0,2.2,134.1,0.13,19.3,20.2,"15:12:00",1
"23/06/22","15:30",0.0,21.6,86.1,999.6,95.5,0.8,2.2,89.5,0.12,19.2,20.3,"15:29:20",1
"23/06/22","15:40",0.0,21.7,85.5,999.8,98.3,0.8,2.1,46.0,0.07,19.2,20.2,"15:32:40",1
"23/06/22","15:50",0.0,21.4,85.2,999.3,128.6,0.8,2.6,147.0,0.05,18.9,20.3,"15:45:12",1
"23/06/22","16:00",0.0,21.5,84.8,999.6,79.7,0.8,3.1,113.4,0.07,18.9,20.2,"15:59:28",1
"23/06/22","16:10",0.0,21.8,84.8,999.3,357.6,0.7,1.7,320.3,0.07,19.2,20.3,"16:08:32",1
"23/06/22","16:20",0.0,21.8,84.2,999.1,62.8,1.1,2.9,43.3,0.10,19.1,20.3,"16:17:28",1
"23/06/22","16:30",0.0,22.0,83.7,999.1,67.1,0.8,2.4,116.4,0.09,19.2,20.3,"16:27:52",1
"23/06/22","16:40",0.0,22.5,83.3,999.1,90.3,1.1,2.9,12.9,0.18,19.6,20.4,"16:35:28",1
"23/06/22","16:50",0.0,22.6,81.9,998.6,98.7,1.0,2.5,134.0,0.14,19.4,20.3,"16:41:52",1
"23/06/22","17:00",0.0,22.7,81.6,998.6,50.8,1.0,2.6,76.9,0.14,19.4,20.4,"16:52:40",1
"23/06/22","17:10",0.0,23.1,80.5,998.9,26.5,0.8,3.1,82.0,0.19,19.6,20.5,"17:00:48",1
"23/06/22","17:20",0.0,23.3,79.5,998.6,23.2,0.7,1.9,60.6,0.14,19.6,20.5,"17:15:28",1
"23/06/22","17:30",0.0,23.2,79.1,998.9,21.5,0.8,2.8,72.7,0.12,19.4,20.3,"17:25:52",1
"23/06/22","17:40",0.0,23.1,79.0,998.9,62.3,1.0,2.5,316.0,0.10,19.3,20.5,"17:32:40",1
"23/06/22","17:50",0.0,23.0,79.1,998.4,29.9,0.7,2.4,94.8,0.09,19.2,20.7,"17:44:00",1
"23/06/22","18:00",0.0,23.0,79.4,998.6,65.5,0.7,1.6,11.8,0.07,19.3,20.6,"17:52:08",1
"23/06/22","18:10",0.0,23.0,79.4,998.4,30.7,0.8,2.2,357.9,0.07,19.3,20.4,"18:04:40",1
"23/06/22","18:20",0.0,23.1,79.4,998.4,351.8,0.6,1.8,7.1,0.06,19.4,20.5,"18:18:32",1
"23/06/22","18:30",0.0,22.8,79.4,998.4,15.9,0.7,1.8,96.3,0.01,19.1,20.5,"18:20:48",1
"23/06/22","18:40",0.0,22.5,80.1,998.4,7.7,0.6,1.2,331.3,0.00,18.9,20.7,"18:31:44",1
"23/06/22","18:50",0.0,22.2,80.9,998.6,346.6,1.0,2.0,334.6,0.00,18.8,20.6,"18:48:48",1
"23/06/22","19:00",0.0,22.1,81.6,998.6,34.8,0.6,1.6,94.7,0.00,18.8,20.5,"18:53:04",1
"23/06/22","19:10",0.0,22.0,82.1,999.1,344.0,1.0,2.0,352.3,0.00,18.8,20.5,"19:04:40",1
"23/06/22","19:20",0.0,21.9,82.5,998.9,10.3,0.6,1.3,85.4,0.00,18.8,20.3,"19:16:08",1
"23/06/22","19:30",0.0,21.9,82.6,998.9,338.7,0.8,1.9,358.2,0.00,18.8,20.7,"19:29:36",1
"23/06/22","19:40",0.0,21.9,82.7,998.9,5.1,0.7,2.1,353.2,0.00,18.9,20.7,"19:38:08",1
"23/06/22","19:50",0.0,21.8,82.9,999.1,9.7,0.7,1.9,337.5,0.00,18.8,20.5,"19:44:00",1
"23/06/22","20:00",0.0,21.6,83.1,999.1,342.9,0.8,2.9,3.1,0.00,18.6,20.6,"19:53:28",1
"23/06/22","20:10",0.0,21.7,83.3,999.1,343.6,0.7,2.1,14.4,0.00,18.8,20.6,"20:04:40",1
"23/06/22","20:20",0.0,21.5,83.5,999.3,334.5,1.1,2.4,320.9,0.00,18.6,20.6,"20:12:00",1
"23/06/22","20:30",0.0,21.5,83.7,999.3,39.5,0.5,1.1,72.1,0.00,18.7,20.5,"20:25:20",1
"23/06/22","20:40",0.0,21.5,83.8,999.6,323.8,1.0,1.7,333.9,0.00,18.7,20.5,"20:37:20",1
"23/06/22","20:50",0.0,21.3,84.3,999.3,293.1,0.6,0.9,318.3,0.00,18.6,20.7,"20:40:16",1
"23/06/22","21:00",0.0,21.0,84.6,999.6,293.8,0.8,1.7,319.3,0.00,18.3,20.6,"20:55:28",1
"23/06/22","21:10",0.0,20.8,85.4,999.6,315.8,0.8,2.4,15.7,0.00,18.3,20.5,"21:06:40",1
"23/06/22","21:20",0.0,20.7,86.0,999.8,290.2,1.1,1.7,330.0,0.00,18.3,20.6,"21:10:40",1
"23/06/22","21:30",0.0,20.6,86.7,999.6,301.3,1.0,1.3,298.9,0.00,18.3,20.6,"21:20:16",1
"23/06/22","21:40",0.0,20.4,87.2,999.6,315.3,1.0,1.3,324.5,0.00,18.2,20.6,"21:30:08",1
"23/06/22","21:50",0.0,20.5,87.8,1000.0,289.1,1.1,1.3,322.9,0.00,18.4,20.3,"21:40:40",1
"23/06/22","22:00",0.0,20.4,88.3,1000.0,319.9,1.2,1.9,329.2,0.00,18.4,20.4,"21:53:12",1
"23/06/22","22:10",0.0,20.5,88.8,1000.0,333.6,1.0,1.9,338.4,0.00,18.6,20.6,"22:07:28",1
"23/06/22","22:20",0.0,20.4,89.2,1000.3,305.8,1.3,1.9,322.4,0.00,18.6,20.7,"22:18:32",1
"23/06/22","22:30",0.0,20.3,89.6,1000.0,305.6,1.0,1.8,324.1,0.00,18.6,20.4,"22:20:48",1
"23/06/22","22:40",0.0,20.3,89.9,1000.0,315.0,1.3,1.9,318.1,0.00,18.6,20.6,"22:37:44",1
"23/06/22","22:50",0.0,20.4,90.1,1000.5,300.4,1.2,2.2,347.4,0.00,18.8,20.5,"22:49:20",1
"23/06/22","23:00",0.0,20.3,90.3,1000.0,328.7,1.3,2.1,342.7,0.00,18.7,20.4,"22:56:16",1
"23/06/22","23:10",0.0,20.3,90.5,1000.3,310.9,1.5,1.9,325.6,0.00,18.7,20.2,"23:07:28",1
"23/06/22","23:20",0.0,20.2,90.6,1000.3,327.4,1.6,2.4,312.9,0.00,18.7,20.4,"23:15:12",1
"23/06/22","23:30",0.0,20.2,90.7,1000.3,308.4,1.1,1.8,317.4,0.00,18.7,20.4,"23:20:16",1
"23/06/22","23:40",0.0,20.2,90.8,1000.3,290.5,1.1,1.7,331.5,0.00,18.7,20.2,"23:38:16",1
"23/06/22","23:50",0.0,20.2,90.9,1000.3,306.0,1.5,2.5,318.0,0.00,18.7,20.5,"23:47:20",1
"23/06/22","24:00",0.0,20.1,91.0,1000.3,313.3,1.1,1.7,317.2,0.00,18.6,20.4,"23:56:16",1
